Погода в Набире

Индонезия     3°21′34″S   135°29′59″E
темп.,
°C
ветер,
м/с
пор.,
м/с
влажн.,
%
обл.,
%
осадки,
мм/ч
давл.,
гПа
погр.,
м
2 марта, вт
вт200:00+25ююв2284100 0.3 101188
03:00+25ю228499 0.7 1010111
06:00+25ю2283100 0.5 1010145
09:00+28юз2269100 0.5 1012326
12:00+28сз3471100 0.0 1010413
15:00+30ссз456798 0.0 1007584
18:00+28с3477100 0.3 1009519
21:00+28зсз3481100 2.4 1011418
3 марта, ср
ср300:00+26ююв3488100 3.4 1012171
03:00+25ю5788100 7.5 1010380
06:00+24ююз3488100 1.9 1011255
09:00+25ююз2285100 2.4 1013229
12:00+27ссз347558 0.1 1011481
15:00+28ссв337771 1.4 1008495
18:00+27ссз3481100 4.3 1010352
21:00+27сз3481100 11.8 1012345
4 марта, чт
чт400:00+25ююз3387100 2.9 1012288
03:00+24ю2283100 3.3 1010191
06:00+24ю338781 0.0 1011178
09:00+26ю227676 0.0 1012235
12:00+27зюз227299 0.0 1010266
15:00+28ссз236685 0.0 1007328
18:00+28с337140 0.0 1009396
21:00+26вюв228170 2.0 1011125
5 марта, пт
пт500:00+24ю2287100 4.4 101180
03:00+24ююв3389100 7.8 1010113
06:00+24ююв2286100 1.9 1010120
09:00+27вюв1176100 2.1 1012237
12:00+28с2271100 0.4 1010388
15:00+29с2366100 0.4 1008422
18:00+28с1268100 0.1 1009343
21:00+27ссв1274100 1.0 1011475
6 марта, сб
сб600:00+25вюв2283100 4.5 1011114
03:00+24юв3388100 8.8 1010111
06:00+24юв2385100 1.8 1010116
09:00+27юв1277100 2.1 1012184
12:00+29ссз2268100 0.0 1009526
15:00+29с336497 0.1 1007484
18:00+28с2375100 0.8 1009547
21:00+26юв1182100 6.3 101151